Gakona, AK

4:26 PM AKDT on August 31, 2016 (GMT -0800)
Gulkana

Weather History for PAGK - December, 2013

Change the Weather History Date:

Tuesday, December 24, 2013

  Actual Average Record
Temperature  
Mean Temperature -26 °F -  
Max Temperature -16 °F 6 °F 41 °F (1985)
Min Temperature -36 °F -6 °F -44 °F (1961)
Degree Days  
Heating Degree Days 91    
Moisture  
Dew Point -31 °F    
Average Humidity 74    
Maximum Humidity 85    
Minimum Humidity 58    
Precipitation  
Precipitation 0.00 in - - ()
Sea Level Pressure  
Sea Level Pressure 30.34 in    
Wind  
Wind Speed 3 mph (NW)    
Max Wind Speed 7 mph    
Max Gust Speed -    
Visibility 9 miles    
Events      
Averages and records for this station are not official NWS values.
T = Trace of Precipitation, MM = Missing Value Source: NWS Daily Summary

Daily Weather History Graph

Daily Weather History Graph

Search for Another Location

Airport or City:

Trip Planner

Search our weather history database for the weather conditions in past years. The results will help you decide how hot, cold, wet, or windy it might be!

Date:

Astronomy

Dec. 24, 2013 Rise Set
Actual Time 10:08 AM AKST 3:14 PM AKST
Civil Twilight 9:02 AM AKST 4:21 PM AKST
Nautical Twilight 7:59 AM AKST 5:23 PM AKST
Astronomical Twilight 7:04 AM AKST 6:19 PM AKST
Moon No Moon Rise 11:55 AM AKST (12/24)
Length of Visible Light 7h 19m
Length of Day
5h 06m
Waning Gibbous, 57% of the Moon is Illuminated
Dec 24
Waning Gibbous
Dec 25
Last Quarter
Jan 1
New
Jan 7
First Quarter
Jan 15
Full

Hourly Weather History & Observations

Time (AKST) Temp. Windchill Dew Point Humidity Pressure Visibility Wind Dir Wind Speed Gust Speed Precip Events Conditions
12:53 AM -24.0 °F -37.9 °F -29.9 °F 74% 30.37 in 10.0 mi WNW 4.6 mph - N/A   Clear
1:53 AM -24.0 °F -37.9 °F -29.0 °F 77% 30.38 in 10.0 mi NW 4.6 mph - N/A   Clear
2:53 AM -22.0 °F -39.4 °F -27.0 °F 77% 30.38 in 10.0 mi NNW 6.9 mph - N/A   Clear
3:53 AM -24.0 °F -37.9 °F -29.0 °F 77% 30.39 in 10.0 mi NNW 4.6 mph - N/A   Clear
4:53 AM -26.0 °F -40.2 °F -29.0 °F 85% 30.39 in 10.0 mi NNW 4.6 mph - N/A   Clear
5:53 AM -26.0 °F -37.5 °F -32.1 °F 73% 30.39 in 8.0 mi NW 3.5 mph - N/A   Clear
6:53 AM -29.0 °F - -34.1 °F 77% 30.41 in 10.0 mi Calm Calm - N/A   Clear
7:53 AM -31.0 °F - - N/A% 30.41 in 9.0 mi Calm Calm - N/A   Clear
8:53 AM -32.1 °F - - N/A% 30.42 in 9.0 mi Calm Calm - N/A   Partly Cloudy
9:53 AM -32.1 °F - - N/A% 30.42 in 8.0 mi Calm Calm - N/A   Clear
10:53 AM -31.0 °F - - N/A% 30.42 in 8.0 mi Calm Calm - N/A   Clear
11:53 AM -31.0 °F -43.3 °F - N/A% 30.41 in 8.0 mi West 3.5 mph - N/A   Clear
12:53 PM -29.0 °F -41.0 °F -35.0 °F 73% 30.39 in 7.0 mi NNW 3.5 mph - N/A   Clear
1:53 PM -26.0 °F - -32.1 °F 73% 30.37 in 8.0 mi Calm Calm - N/A   Clear
2:53 PM -27.9 °F - -34.1 °F 73% 30.33 in 8.0 mi Calm Calm - N/A   Clear
3:53 PM -29.9 °F - - N/A% 30.32 in 8.0 mi Calm Calm - N/A   Clear
4:53 PM -31.0 °F - - N/A% 30.31 in 9.0 mi Calm Calm - N/A   Clear
5:53 PM -31.0 °F -43.3 °F - N/A% 30.28 in 9.0 mi NNW 3.5 mph - N/A   Clear
6:53 PM -32.1 °F - - N/A% 30.27 in 9.0 mi Calm Calm - N/A   Partly Cloudy
7:53 PM -33.0 °F -48.4 °F - N/A% 30.25 in 9.0 mi NNW 4.6 mph - N/A   Clear
8:53 PM -34.1 °F - - N/A% 30.23 in 9.0 mi Calm Calm - N/A   Partly Cloudy
9:53 PM -35.0 °F -47.8 °F - N/A% 30.21 in 9.0 mi North 3.5 mph - N/A   Clear
10:53 PM -36.0 °F -49.0 °F - N/A% 30.20 in 9.0 mi NNW 3.5 mph - N/A   Clear
11:53 PM -35.0 °F -53.1 °F - N/A% 30.19 in 9.0 mi NW 5.8 mph - N/A   Clear